Regional Weather Roundup
Issued by NWS

Home | Current Version | Previous Version | Graphics & Text | Print | Product List | Glossary On
Versions: 1 2 3 4 5 6 7 8 9 10 11 12 13 14 15 16 17 18 19 20 21 22 23 24 25 26 27 28 29 30 31 32 33 34 35 36 37 38 39 40 41 42 43 44 45 46 47 48 49 50
000
ASUS43 KDTX 250710
RWRMI
MICHIGAN HOURLY REGIONAL WEATHER ROUNDUP
NATIONAL WEATHER SERVICE DETROIT/PONTIAC MI
200 AM EST SAT FEB 25 2017

NOTE: "FAIR" INDICATES FEW OR NO CLOUDS BELOW 12,000 FEET WITH NO
SIGNIFICANT WEATHER AND/OR OBSTRUCTION TO VISIBILITY.

MIZ047>049-052>055-059>063-066>070-074>076-081>083-250800-
SOUTHEAST LOWER MICHIGAN

CITY           SKY/WX    TMP DP  RH WIND       PRES   REMARKS
ADRIAN         CLOUDY    42  37  82 W13       29.54F
ALMA           CLOUDY    39  35  87 SW13G22   29.47R WCI  31
ANN ARBOR      CLOUDY    42  36  79 W16       29.52S
BAD AXE        CLOUDY    42  41  97 SW14G22   29.44R FOG
CARO           CLOUDY    42  39  88 SW15G29   29.45R
DETROIT CITY   CLOUDY    48  43  82 W22G29    29.49R
DETROIT        CLOUDY    45  40  82 W21G29    29.53R
FLINT          CLOUDY    41  36  82 W16G24    29.48S
GROSSE ILE     CLOUDY    47  42  81 W17G24    29.51R
HILLSDALE      CLEAR     36  34  93 SW7       29.53S WCI  30
HOWELL         CLOUDY    40  35  83 W12       29.49F WCI  33

CITY           SKY/WX    TMP DP  RH WIND       PRES   REMARKS
JACKSON        CLEAR     39  32  76 W13       29.51F WCI  31
LAMBERTVILLE   CLOUDY    46  40  82 W10       29.56R
LANSING        MOCLDY    38  32  79 SW20      29.50F WCI  28
LAPEER         CLOUDY    44  40  87 W17G24    29.47R
MASON          CLOUDY    39  35  83 W9G16     29.50F WCI  33
MONROE         CLOUDY    46  41  83 W15G24    29.53R
MT. CLEMENS    CLOUDY    52  50  92 SW20G26   29.45R
PONTIAC        CLOUDY    42  38  85 W17G23    29.47R
PORT HOPE        N/A     42  41  96 SW15G22   29.39S
PORT HURON     CLOUDY    52  52 100 W5        29.44S
TRI CITIES     MOCLDY    41  36  82 SW21      29.44S
MIDLAND        CLOUDY    41  36  82 SW7G17    29.42R
TROY           CLOUDY    46  41  81 W15G24    29.51R
SAGINAW HB     CLOUDY    41  34  75 SW15G29   29.45R
$$
MIZ043>046-050>051-056>058-064>065-071>073-077>080-250800-
SOUTHWEST LOWER MICHIGAN

CITY           SKY/WX    TMP DP  RH WIND       PRES   REMARKS
BATTLE CREEK   MOCLDY    37  33  85 W10       29.53S WCI  30
BENTON HARBOR  CLOUDY    35  32  88 NW7       29.57S WCI  29
BIG RAPIDS     CLOUDY    35  33  95 W12       29.42S WCI  26
COLDWATER      CLOUDY    39  36  89 W12       29.55R WCI  31
FREMONT        CLOUDY    35  35 100 W7        29.46S WCI  29
HOLLAND        CLOUDY    32  29  88 W13       29.54S WCI  22
GRAND RAPIDS   LGT SNOW  33  31  92 W15       29.50S FOG     WCI  23
IONIA          CLOUDY    36  33  88 SW24      29.48F WCI  24
KALAMAZOO      CLOUDY    36  31  82 W12       29.55R WCI  28
LUDINGTON      LGT SNOW  31  31  99 N13G18    29.46S WCI  22
MARSHALL       MOCLDY    37  33  86 SW8       29.53S WCI  31
MOUNT PLEASANT CLOUDY    38  36  89 SW13G18   29.43R WCI  31
MUSKEGON       LGT SNOW  33  31  92 W17G23    29.50S FOG     WCI  22
SOUTH HAVEN    LGT SNOW  33  31  96 NW8       29.55F WCI  25
$$
MIZ016>042-250800-
NORTHERN LOWER MICHIGAN

CITY           SKY/WX    TMP DP  RH WIND       PRES   REMARKS
ALPENA         CLOUDY    34  34 100 NW3       29.37F FOG
BEAVER ISLAND  CLOUDY    23  23  99 N8        29.46F FOG     WCI  14
BELLAIRE       CLOUDY    32  32 100 NW3       29.41F FOG
CADILLAC       CLOUDY    32  32  99 SW7       29.38R FOG     WCI  26
CHARLEVOIX     LGT SNOW  29  29 100 N14       29.45F WCI  18
FRANKFORT      MIX PCPN  30  28  94 N9G16     29.45R WCI  21
GAYLORD        CLOUDY    33  29  85 CALM      29.37R FOG
GRAYLING       CLOUDY    33  32  98 CALM      29.38S FOG
HARBOR SPRINGS LGT SNOW  30  29  97 N3        29.42S
HOUGHTON LAKE  CLOUDY    33  32  96 S3        29.38F FOG
MANISTEE       LGT SNOW  30  28  93 NW14G20   29.45R FOG     WCI  20
OSCODA         CLOUDY    35  34  97 W6        29.38S FOG     WCI  30
PELLSTON       CLOUDY    29  27  92 N8        29.42R FOG     WCI  21
ROGERS CITY    CLOUDY    32  31  98 CALM      29.37F FOG
TRAVERSE CITY  CLOUDY    33  31  92 N7        29.42R FOG     WCI  27
$$
MIZ007>008-015-250800-
EASTERN UPPER MICHIGAN

CITY           SKY/WX    TMP DP  RH WIND       PRES   REMARKS
KINROSS        MIX PCPN  21  19  93 N9        29.43F FOG     WCI  11
MACKINAC ISLAN CLOUDY    26  26 100 N8        29.42S FOG     WCI  17
NEWBERRY       CLOUDY    20  19  97 N8        29.48F FOG     WCI  10
S. S. MARIE    CLOUDY    23  18  81 NE8       29.44F WCI  14
MUNISING         N/A     25  23  92 N18       29.53F WCI  11
$$
MIZ004>006-011>014-085-250800-
CENTRAL UPPER MICHIGAN

CITY           SKY/WX    TMP DP  RH WIND       PRES   REMARKS
MANISTIQUE     CLOUDY    22  22  98 N9        29.48F FOG     WCI  12
ESCANABA       CLOUDY    25  21  85 NW14G20   29.53S WCI  13
MENOMINEE      MIX PCPN  22  19  89 N15       29.55F FOG     WCI   9
SAWYER-GWINN   LGT SNOW  21  19  93 N13       29.53F VSB 3/4 WCI   8
$$
MIZ001>003-009>011-084-250800-
WESTERN UPPER MICHIGAN

CITY           SKY/WX    TMP DP  RH WIND       PRES   REMARKS
IRON MOUNTAIN  CLOUDY    19  12  74 NW17      29.56S WCI   4
HOUGHTON       HAZE      19  14  81 N16G24    29.63F VSB 1   WCI   4
COPPER HARBOR    N/A     22  19  89 NE17G29   29.65F WCI   8
IRONWOOD       LGT SNOW  16  13  88 N10       29.71F FOG     WCI   4
$$

ABBREVIATIONS USED IN REMARKS
   TC - TEMPERATURE IN CELSIUS
  WCI - WIND CHILL INDEX
   HX - HEAT INDEX
  VSB - VISIBILITY




USA.gov is the U.S. government's official web portal to all federal, state and local government web resources and services.